DW3793 Weather Reports


time (UTC)temp
C
wind
direction
speed
KPH
gust
KPH
rain 1hr
cm
rain 24hr
cm
rain mn
cm
humidity
%
barometer
mb
20260505193021 21 173 0.0 16.1 0.00 0.00 0.00 46 1012.1
20260505191519 20 173 8.0 12.9 0.00 0.00 0.00 52 1012.3
20260505190026 20 158 3.2 8.0 0.00 0.00 0.00 52 1012.4
20260505184546 19 142 0.0 6.4 0.00 0.00 0.00 50 1012.6
20260505183107 18 138 1.6 4.8 0.00 0.00 0.00 52 1012.5
20260505181537 18 57 0.0 4.8 0.00 0.00 0.00 52 1012.6
20260505180037 18 150 0.0 11.3 0.00 0.00 0.00 51 1012.7
20260505174537 18 89 3.2 8.0 0.00 0.00 0.00 50 1012.6
20260505173042 18 311 0.0 4.8 0.00 0.00 0.00 53 1012.7
20260505171541 17 285 1.6 6.4 0.00 0.00 0.00 51 1012.7
20260505170025 17 75 1.6 9.7 0.00 0.00 0.00 55 1012.6
20260505164524 17 76 1.6 6.4 0.00 0.00 0.00 57 1012.7
20260505163023 16 98 0.0 8.0 0.00 0.00 0.00 60 1012.7
20260505161520 16 62 1.6 6.4 0.00 0.00 0.00 58 1012.7
20260505153018 15 86 1.6 6.4 0.00 0.00 0.00 57 1012.5
20260505151513 16 301 0.0 3.2 0.00 0.00 0.00 56 1012.5
20260505124512 6 250 0.0 4.8 0.00 0.00 0.00 82 1011.3
20260505123010 6 290 1.6 3.2 0.00 0.00 0.00 83 1011.2
20260505121510 6 298 1.6 4.8 0.00 0.00 0.00 82 1011.1
20260505120026 6 264 0.0 3.2 0.00 0.00 0.00 83 1011.0
20260505114505 6 284 0.0 3.2 0.00 0.00 0.00 81 1010.9
20260505113035 7 294 1.6 4.8 0.00 0.00 0.00 81 1010.9
20260505111529 7 313 0.0 1.6 0.00 0.00 0.00 79 1010.8
20260505101524 7 305 1.6 4.8 0.00 0.00 0.00 78 1010.4
20260505100048 8 265 1.6 4.8 0.00 0.00 0.00 77 1010.3
20260505094544 8 302 1.6 3.2 0.00 0.00 0.00 76 1010.2
20260505093014 8 257 0.0 3.2 0.00 0.00 0.00 74 1010.1
20260505091523 9 258 0.0 1.6 0.00 0.00 0.00 73 1010.1
20260505090016 10 273 0.0 3.2 0.00 0.00 0.00 72 1010.1
20260505084507 9 296 0.0 1.6 0.00 0.00 0.00 75 1010.1
20260505083007 9 290 0.0 4.8 0.00 0.00 0.00 74 1010.1
20260505081510 9 284 1.6 3.2 0.00 0.00 0.00 75 1010.1
20260505080038 10 302 3.2 4.8 0.00 0.00 0.00 74 1010.1
20260505074530 10 259 0.0 4.8 0.00 0.00 0.00 73 1010.1
20260505073111 10 313 0.0 4.8 0.00 0.00 0.00 71 1010.0
20260505071600 10 302 1.6 6.4 0.00 0.00 0.00 71 1009.9
20260505070052 11 307 1.6 6.4 0.00 0.00 0.00 70 1009.7
20260505064551 11 293 3.2 4.8 0.00 0.00 0.00 70 1009.6
20260505063047 11 315 1.6 6.4 0.00 0.00 0.00 69 1009.5
20260505061552 11 311 1.6 6.4 0.00 0.00 0.00 68 1009.5
20260505060042 11 299 0.0 6.4 0.00 0.00 0.00 67 1009.4
20260505054559 12 327 1.6 6.4 0.00 0.00 0.00 65 1009.5
20260505053050 12 324 1.6 6.4 0.00 0.00 0.00 64 1009.3
20260505051542 12 340 3.2 8.0 0.00 0.00 0.00 64 1009.3
20260505041512 13 316 3.2 8.0 0.00 0.00 0.00 62 1009.2
20260505040006 14 277 0.0 3.2 0.00 0.00 0.00 57 1009.1
20260505034509 15 290 0.0 3.2 0.00 0.00 0.00 56 1008.9
20260505033003 16 282 0.0 1.6 0.00 0.00 0.00 51 1008.9
20260505031509 17 119 0.0 4.8 0.00 0.00 0.00 48 1008.7
20260505030002 18 134 0.0 6.4 0.00 0.00 0.00 44 1008.6
20260505024503 19 112 3.2 19.3 0.00 0.00 0.00 42 1008.3
20260505023120 20 107 3.2 9.7 0.00 0.00 0.00 40 1008.4
20260505021559 21 156 8.0 20.9 0.00 0.00 0.00 37 1008.3
20260505020057 21 138 12.9 24.1 0.00 0.00 0.00 35 1008.1
20260505014605 22 130 14.5 27.4 0.00 0.00 0.00 34 1008.1
20260505013107 22 109 12.9 30.6 0.00 0.00 0.00 33 1008.2
20260505011554 22 95 14.5 25.7 0.00 0.00 0.00 33 1008.2
20260505010053 23 96 14.5 29.0 0.00 0.00 0.00 33 1008.2
20260505004556 23 126 11.3 27.4 0.00 0.00 0.00 31 1008.3
20260505003047 23 87 17.7 30.6 0.00 0.00 0.00 33 1008.2
20260505001551 23 111 12.9 29.0 0.00 0.00 0.00 34 1008.3
20260505000105 23 123 19.3 33.8 0.00 0.00 0.00 33 1008.2
20260504234545 23 109 14.5 27.4 0.00 0.00 0.00 35 1008.2
20260504233016 23 105 12.9 30.6 0.00 0.00 0.00 33 1008.2
20260504231515 23 153 16.1 40.2 0.00 0.00 0.00 34 1008.4
20260504230010 23 110 12.9 38.6 0.00 0.00 0.00 32 1008.4
20260504224510 23 116 20.9 33.8 0.00 0.00 0.00 32 1008.5
20260504223008 23 132 17.7 32.2 0.00 0.00 0.00 35 1008.6
20260504221509 23 138 17.7 33.8 0.00 0.00 0.00 33 1008.8
20260504220008 23 101 14.5 30.6 0.00 0.00 0.00 33 1008.7
20260504214535 24 117 17.7 30.6 0.00 0.00 0.00 32 1008.8
20260504213041 24 144 16.1 29.0 0.00 0.00 0.00 31 1008.9
20260504211528 24 128 14.5 33.8 0.00 0.00 0.00 31 1009.0
20260504210028 24 134 19.3 32.2 0.00 0.00 0.00 28 1009.1
20260504204525 24 114 17.7 32.2 0.00 0.00 0.00 29 1009.1
20260504203027 24 131 17.7 30.6 0.00 0.00 0.00 35 1009.2
20260504201518 24 101 16.1 40.2 0.00 0.00 0.00 33 1009.3
20260504200016 23 144 9.7 19.3 0.00 0.00 0.00 40 1009.4